Regional Weather Roundup
Issued by NWS Upton, NY

Current Version | Previous Version | Text Only | Print | Product List | Glossary Off
Versions: 1 2 3 4 5 6 7 8 9 10 11 12 13 14 15 16 17 18 19 20 21 22 23 24 25 26 27

000
ASUS41 KOKX 281209
RWROKX

REGIONAL WEATHER ROUNDUP
NATIONAL WEATHER SERVICE NEW YORK NY
800 AM EDT FRI APR 28 2017

NOTE: "FAIR" INDICATES FEW OR NO CLOUDS BELOW 12,000 FEET WITH NO
SIGNIFICANT WEATHER AND/OR OBSTRUCTIONS TO VISIBILITY.

NYZ071-072-176-178-NJZ106-104-281300-
NEW YORK CITY METRO AREA

CITY           SKY/WX    TMP DP  RH WIND       PRES   REMARKS
Central Park   CLOUDY    61  59  93 W3        29.99R FOG
Wall St Helipt PTSUNNY   57  55  94 W3        29.97R
Bronx Bot Gard   N/A     59  57  94 SE2       29.97R
LaGuardia APRT FOG       58  57  97 E5        29.96R VSB 1
Kennedy INTL   CLOUDY    58  58 100 CALM      29.97R FOG
Breezy Point     N/A     54 N/A N/A S3          N/A
Newark/Liberty FOG       60  59  96 VRB3      29.96R VSB 1/2
Teterboro      CLOUDY    60  60 100 CALM      29.95R FOG
$$

NYZ177-179-078>081-281300-
LONG ISLAND NEW YORK

CITY           SKY/WX    TMP DP  RH WIND       PRES   REMARKS
Jones Beach      N/A     52 N/A N/A S5          N/A
Matinecock PT  NOT AVBL
Farmingdale    FOG       58  57  97 S3        29.97R VSB 3/4
MacArthur/ISP  CLOUDY    57  57 100 S6        29.97R FOG
Shirley        CLOUDY    56  55  97 S6        29.98R FOG
Mt Sinai Harb    N/A     52 N/A N/A NW1         N/A
Westhampton    CLOUDY    56  54  93 VRB3      29.98R FOG
East Hampton   PTSUNNY   54  53  97 CALM      29.95F
Montauk          N/A     56  55  97 SW6       29.99R
$$

NYZ052-065-067-281300-
HUDSON VALLEY

CITY           SKY/WX    TMP DP  RH WIND       PRES   REMARKS
White Plains   FOG       59  58  96 CALM      29.95R VSB 3/4
Larchmont Harb   N/A     52 N/A N/A SE6         N/A
Croton O-T Hud   N/A     55 N/A N/A MISG        N/A
Newburgh       CLOUDY    61  61 100 CALM      29.95R FOG
Montgomery     CLOUDY    62  59  90 CALM      29.94R
Poughkeepsie   CLOUDY    61  58  90 SE5       29.93S FOG
Albany         CLOUDY    61  58  90 S5        29.96R
$$

NJZ001-105-106-008-010-013-015-019>022-104-281300-
NEW JERSEY

CITY           SKY/WX    TMP DP  RH WIND       PRES   REMARKS
Newark/Liberty FOG       60  59  96 VRB3      29.96R VSB 1/2
Teterboro      CLOUDY    60  60 100 CALM      29.95R FOG
Caldwell       CLOUDY    60  59  96 CALM      29.97R FOG
Somerville     FOG       60  59  96 CALM      29.95R VSB 1
Linden         CLOUDY    59  59  99 CALM      29.97R FOG
Perth Amboy      N/A     55 N/A N/A E1          N/A
Sussex         CLOUDY    62  60  93 S5        29.96R FOG
Andover          N/A     58  58 100 CALM      29.97R
Trenton        MOSUNNY   63  61  93 N3        29.96R FOG
Millville      CLOUDY    68  66  93 W10       29.97R
Atlantic City  CLOUDY    65  61  87 SW5       29.97R
Wrightstown    SUNNY     67  64  89 W6        29.93R
Toms River     SUNNY     69  64  84 SW8       29.97R
Belmar         PTSUNNY   65  63  93 W5        29.96R
$$

PAZ047>061-062-071-281300-
EASTERN PENNSYLVANIA

CITY           SKY/WX    TMP DP  RH WIND       PRES   REMARKS
Philadelphia   MOSUNNY   67  63  87 S5        29.96R
Allentown      MOSUNNY   62  59  90 SW3       29.97R
Scranton       SUNNY     66  62  87 W12       29.97R
$$

CTZ002-004>006-009-010-012-RIZ004-006-007-MAZ004-011-015-281300-
SOUTHERN NEW ENGLAND
 IN CT

CITY           SKY/WX    TMP DP  RH WIND       PRES   REMARKS
Bradley INTL   FOG       59  59 100 CALM      29.95R VSB 1/4
Hartford       CLOUDY    59  58  96 SE6       29.94F FOG
Danbury        CLOUDY    57  57 100 CALM      29.96S FOG
Wtrbury/Oxford FOG       57  54  88 CALM      29.97S VSB 0
Bridgeport     FOG       57  55  93 E3        29.96R VSB<1/4
Meriden        FOG       59  57  93 SE3       29.95F VSB 1
New Haven      FOG       56  56 100 CALM      29.95R VSB 1/4
Chester        LGT RAIN  57  57 100 CALM      29.95S VSB<1/4
Groton         LGT RAIN  53  52  96 SE3       29.96R VSB 3/4
Wilimantic     CLOUDY    59  58  96 S3        29.97R FOG

 IN RI

CITY           SKY/WX    TMP DP  RH WIND       PRES   REMARKS
Providence     FOG       54  54 100 S6        29.96F VSB 1/4
Block Island   CLOUDY    53  52  96 SW12        N/A  FOG
Westerly       CLOUDY    54  54 100 CALM      29.97R FOG
 IN MA

CITY           SKY/WX    TMP DP  RH WIND       PRES   REMARKS
Boston         FOG       58  58 100 S5        29.95R VSB 1
Worcester      FOG       56  55  97 W5        29.95R VSB 1/4
Westfield      CLOUDY    59  59 100 S6        29.95R
Provincetown   CLOUDY    56  56 100 S13       29.96S FOG
Nantucket      FOG       56  55  97 S8        30.00R VSB 1/2
$$

ANZ330-335-338-340-345-350-353-355-281300-
COASTAL MARINE OBSERVATIONS


STATION/POSITION TIME  SKY/WX   TEMP    WIND        PRES    VSBY  WAVE
                                AIR SEA DIR/SP/G                  HT/PER
                 (UTC)          (F)     (DEG/KT/KT) (MB)    (MI)  (FT/S)
NY HARB ENTRANCE 1050            51 49  190/  8/ 10 1014.0          4/ 9
20 S FIRE ISLAND 1050            52 47  180/  8/ 12 1012.8          5/ 8
GREAT SOUTH BAY  1130            55 57  190/  6/  8   N/A
23 SSW MONTAUK P 1050            49 46              1014.7          5/ 9
15 E BARNEGAT LI 1130               51                N/A           5/ 9
HUDSON CANYON    1050            54 49  200/ 12/ 14 1014.8          5/ 9
KINGS POINT      1124            53 50   40/  2/  4 1014.0
EXECUTION ROCKS  NOT AVBL
CENTRAL LI SOUND 1145            50     110/  4/  4   N/A           0
EASTERN LI SOUND NOT AVBL
ROBBINS REEF     1124            58     220/  4/  4 1014.5
$$


>>>>>>>>>>>>>>>>>>>>>>>>>>>> KEY <<<<<<<<<<<<<<<<<<<<<<<<<<<
>                                                          <
>     SKY/WX - Sky Condition/Present Weather               <
>     TMP    - Temperature in Fahrenheit                   <
>     DP     - Dew Point in Fahrenheit                     <
>     RH     - Relative Humidity in Percent                <
>     WIND   - Direction (from) and Speed in MPH           <
>     PRES   - Mean Sea Level Pressure (inches of Hg)      <
>     WCI    - Wind Chill Index                            <
>     VSB    - VISIBILITY IN MILES                         <
>     HX     - HEAT INDEX                                  <
>     TC     - TEMPERATURE IN CELSIUS                      <
>     VRB    - VARIABLE WIND DIRECTION                     <
>                                                          <
>>>>>>>>>>>>>>>>>>>>>>>>>>>> KEY <<<<<<<<<<<<<<<<<<<<<<<<<<<




USA.gov is the U.S. government's official web portal to all federal, state and local government web resources and services.